Lincoln Laboratory Near-Earth Asteroid Research project
軌道要素
Epoch 2004 July 14.0 TT = JDT 2453200.5 MPC
M 8.95756 (2000.0) P Q
n 0.04604554 Peri. 162.47929 -0.90617601 +0.05464148
a 7.7092296 Node 32.03902 -0.41540227 -0.30091343
e 0.4672328 Incl. 52.23196 +0.07928424 -0.95208477
P 21.41 H 12.8 G 0.15 U 2